TimeMDT,TemperatureF,Dew PointF,Humidity,Sea Level PressureIn,VisibilityMPH,Wind Direction,Wind SpeedMPH,Gust SpeedMPH,PrecipitationIn,Events,Conditions,WindDirDegrees,DateUTC
12:15 AM,46.4,30.2,53,29.87,10.0,West,15.0,28.8,N/A,,Mostly Cloudy,280,2013-04-06 06:15:00
12:35 AM,46.4,30.2,53,29.88,10.0,West,12.7,24.2,N/A,,Scattered Clouds,280,2013-04-06 06:35:00
12:55 AM,46.4,30.2,53,29.88,10.0,West,9.2,18.4,N/A,,Mostly Cloudy,280,2013-04-06 06:55:00
1:15 AM,46.4,30.2,53,29.88,10.0,West,15.0,27.6,N/A,,Overcast,260,2013-04-06 07:15:00
1:35 AM,46.4,30.2,53,29.89,10.0,West,12.7,25.3,N/A,,Overcast,280,2013-04-06 07:35:00
1:55 AM,46.4,30.2,53,29.88,10.0,West,10.4,18.4,N/A,,Overcast,260,2013-04-06 07:55:00
2:15 AM,46.4,30.2,53,29.88,10.0,West,8.1,19.6,N/A,,Overcast,270,2013-04-06 08:15:00
2:35 AM,46.4,28.4,50,29.87,10.0,West,13.8,18.4,N/A,,Overcast,260,2013-04-06 08:35:00
2:55 AM,46.4,28.4,50,29.87,10.0,West,15.0,18.4,N/A,,Overcast,280,2013-04-06 08:55:00
3:35 AM,46.4,28.4,50,29.87,10.0,WNW,8.1,-,N/A,,Mostly Cloudy,290,2013-04-06 09:35:00
4:16 AM,46.4,26.6,46,29.87,10.0,West,5.8,-,N/A,,Partly Cloudy,280,2013-04-06 10:16:00
4:35 AM,44.6,26.6,49,29.86,10.0,WNW,5.8,-,N/A,,Clear,290,2013-04-06 10:35:00
4:55 AM,46.4,26.6,46,29.86,10.0,NW,6.9,-,N/A,,Clear,320,2013-04-06 10:55:00
5:15 AM,42.8,26.6,53,29.86,10.0,Calm,Calm,-,N/A,,Clear,0,2013-04-06 11:15:00
5:35 AM,44.6,26.6,49,29.87,10.0,NNW,3.5,-,N/A,,Mostly Cloudy,330,2013-04-06 11:35:00
5:55 AM,44.6,26.6,49,29.86,10.0,NNW,3.5,-,N/A,,Mostly Cloudy,330,2013-04-06 11:55:00
6:15 AM,44.6,26.6,49,29.86,10.0,NW,8.1,-,N/A,,Partly Cloudy,310,2013-04-06 12:15:00
6:55 AM,44.6,26.6,49,29.87,10.0,Calm,Calm,-,N/A,,Clear,0,2013-04-06 12:55:00
7:35 AM,46.4,28.4,50,29.87,10.0,NW,8.1,-,N/A,,Partly Cloudy,320,2013-04-06 13:35:00
7:55 AM,46.4,26.6,46,29.87,10.0,NW,9.2,-,N/A,,Clear,320,2013-04-06 13:55:00
8:15 AM,46.4,28.4,50,29.87,10.0,West,13.8,20.7,N/A,,Scattered Clouds,270,2013-04-06 14:15:00
8:35 AM,46.4,26.6,46,29.87,10.0,West,13.8,18.4,N/A,,Scattered Clouds,270,2013-04-06 14:35:00
8:55 AM,48.2,26.6,43,29.87,10.0,WNW,9.2,23.0,N/A,,Partly Cloudy,300,2013-04-06 14:55:00
9:15 AM,48.2,26.6,43,29.86,10.0,West,6.9,-,N/A,,Partly Cloudy,280,2013-04-06 15:15:00
9:35 AM,48.2,26.6,43,29.86,10.0,West,6.9,-,N/A,,Clear,260,2013-04-06 15:35:00
9:55 AM,48.2,26.6,43,29.86,10.0,WNW,9.2,17.3,N/A,,Clear,290,2013-04-06 15:55:00
10:15 AM,48.2,26.6,43,29.86,10.0,West,13.8,25.3,N/A,,Clear,280,2013-04-06 16:15:00
10:35 AM,50.0,26.6,40,29.86,10.0,West,13.8,18.4,N/A,,Clear,260,2013-04-06 16:35:00
10:55 AM,50.0,26.6,40,29.86,10.0,WSW,12.7,20.7,N/A,,Scattered Clouds,250,2013-04-06 16:55:00
11:15 AM,51.8,24.8,35,29.86,10.0,West,15.0,21.9,N/A,,Partly Cloudy,260,2013-04-06 17:15:00
11:35 AM,51.8,26.6,38,29.86,10.0,West,15.0,19.6,N/A,,Clear,280,2013-04-06 17:35:00
11:55 AM,53.6,26.6,35,29.86,10.0,West,9.2,-,N/A,,Clear,260,2013-04-06 17:55:00
12:35 PM,55.4,26.6,33,29.84,10.0,West,13.8,20.7,N/A,,Partly Cloudy,270,2013-04-06 18:35:00
12:55 PM,55.4,26.6,33,29.82,10.0,WSW,11.5,23.0,N/A,,Partly Cloudy,240,2013-04-06 18:55:00
1:15 PM,55.4,24.8,31,29.83,10.0,West,18.4,27.6,N/A,,Mostly Cloudy,260,2013-04-06 19:15:00
1:35 PM,55.4,28.4,36,29.82,10.0,WSW,13.8,21.9,N/A,,Overcast,240,2013-04-06 19:35:00
1:55 PM,55.4,28.4,36,29.82,10.0,WSW,21.9,29.9,N/A,,Scattered Clouds,250,2013-04-06 19:55:00
2:15 PM,55.4,28.4,36,29.81,10.0,WSW,21.9,33.4,N/A,,Clear,240,2013-04-06 20:15:00
2:35 PM,55.4,28.4,36,29.80,10.0,West,21.9,32.2,N/A,,Clear,260,2013-04-06 20:35:00
2:55 PM,53.6,28.4,38,29.80,10.0,WSW,16.1,26.5,N/A,,Clear,250,2013-04-06 20:55:00
3:35 PM,53.6,28.4,38,29.79,10.0,West,17.3,27.6,N/A,,Clear,260,2013-04-06 21:35:00
3:56 PM,53.6,28.4,38,29.78,10.0,West,15.0,26.5,N/A,,Clear,260,2013-04-06 21:56:00
4:15 PM,55.4,28.4,36,29.78,10.0,WSW,17.3,28.8,N/A,,Clear,250,2013-04-06 22:15:00
4:35 PM,55.4,28.4,36,29.78,10.0,WSW,16.1,26.5,N/A,,Partly Cloudy,250,2013-04-06 22:35:00
4:55 PM,55.4,28.4,36,29.78,10.0,WSW,17.3,28.8,N/A,,Clear,240,2013-04-06 22:55:00
5:35 PM,53.6,28.4,38,29.78,10.0,WSW,15.0,25.3,N/A,,Clear,240,2013-04-06 23:35:00
5:55 PM,51.8,26.6,38,29.79,10.0,West,18.4,29.9,N/A,,Clear,260,2013-04-06 23:55:00
6:15 PM,51.8,28.4,41,29.79,10.0,WSW,18.4,29.9,N/A,,Partly Cloudy,250,2013-04-07 00:15:00
6:35 PM,51.8,28.4,41,29.80,10.0,WSW,16.1,40.3,N/A,,Mostly Cloudy,250,2013-04-07 00:35:00
6:55 PM,51.8,28.4,41,29.79,10.0,WSW,15.0,28.8,N/A,,Mostly Cloudy,240,2013-04-07 00:55:00
7:35 PM,48.2,28.4,46,29.80,10.0,WSW,13.8,29.9,N/A,,Mostly Cloudy,250,2013-04-07 01:35:00
7:55 PM,48.2,30.2,50,29.81,10.0,WSW,17.3,25.3,N/A,,Scattered Clouds,250,2013-04-07 01:55:00
8:15 PM,48.2,30.2,50,29.81,10.0,WSW,20.7,27.6,N/A,,Partly Cloudy,250,2013-04-07 02:15:00
8:35 PM,48.2,30.2,50,29.82,10.0,West,16.1,29.9,N/A,,Partly Cloudy,260,2013-04-07 02:35:00
8:55 PM,46.4,30.2,53,29.82,10.0,WNW,8.1,17.3,N/A,,Scattered Clouds,300,2013-04-07 02:55:00
9:15 PM,46.4,30.2,53,29.83,10.0,WNW,10.4,-,N/A,,Clear,290,2013-04-07 03:15:00
9:55 PM,48.2,28.4,46,29.82,10.0,NW,6.9,16.1,N/A,,Clear,320,2013-04-07 03:55:00
10:15 PM,46.4,30.2,53,29.83,10.0,NW,3.5,-,N/A,,Clear,310,2013-04-07 04:15:00
10:35 PM,44.6,30.2,57,29.82,10.0,North,5.8,-,N/A,,Partly Cloudy,350,2013-04-07 04:35:00
10:55 PM,44.6,28.4,53,29.82,10.0,West,3.5,-,N/A,,Clear,270,2013-04-07 04:55:00
11:15 PM,46.4,30.2,53,29.82,10.0,East,3.5,-,N/A,,Clear,100,2013-04-07 05:15:00
11:35 PM,46.4,30.2,53,29.82,10.0,West,9.2,-,N/A,,Mostly Cloudy,280,2013-04-07 05:35:00
11:55 PM,46.4,30.2,53,29.81,10.0,West,8.1,-,N/A,,Mostly Cloudy,260,2013-04-07 05:55:00